Regional Weather Roundup
Issued by NWS

Home | Current Version | Previous Version | Graphics & Text | Print | Product List | Glossary On
Versions: 1 2 3 4 5 6 7 8 9 10 11 12 13 14 15 16 17 18 19 20 21 22 23 24 25 26 27 28 29 30 31 32 33 34 35 36 37 38 39 40 41 42 43 44 45 46 47 48 49 50
000
ASUS45 KTFX 130704
RWRMT
MONTANA HOURLY WEATHER ROUNDUP
NATIONAL WEATHER SERVICE GREAT FALLS MT
104 AM MDT SUN JUL 13 2014

NOTE: "FAIR" INDICATES FEW OR NO CLOUDS BELOW 12000 FEET WITH NO
SIGNIFICANT WEATHER AND/OR OBSTRUCTIONS TO VISIBILITY.

* THESE STATIONS ARE NOT UNDER NWS QUALITY CONTROL. THEY DO NOT
   REPORT WEATHER SUCH AS PRECIPITATION OR FOG.

MTZ001>007-043-130800-
WEST OF THE DIVIDE
CITY           SKY/WX    TMP DP  RH WIND       PRES   REMARKS
KALISPELL      CLEAR     57  52  83 CALM      30.16S
MISSOULA       CLEAR     64  43  47 W5        30.19R
MULLAN PASS    CLEAR     68  43  40 N3        30.36S
* ESSEX        N/A       62  47  58 SE4G9      N/A
* LINCOLN      N/A       57  47  69 SW2        N/A
* LOOKOUT PASS N/A       65  48  54 N2         N/A
* POLSON       N/A       66  38  36 N/A        N/A
* RONAN APT    CLEAR     55  50  83 N/A        N/A
* SEELEY LAKE  N/A       54  46  74 NE3        N/A
* THOMP F APT  CLEAR     57  43  60 NE4        N/A
* YAAK HILL    N/A       64  47  54 N/A        N/A
$$

MTZ008-052>055-130800-
SOUTHWEST MONTANA
CITY           SKY/WX    TMP DP  RH WIND       PRES   REMARKS
W YELLOWSTONE  CLEAR     50  48  93 W3        30.43R
* THREE FORKS  PTCLDY    64  45  50 N/A        N/A
* BOULDER HILL N/A       63  43  48 VRB1       N/A
* MONIDA PASS  N/A       53  46  77 W2         N/A
* RAYNOLDS PAS N/A       51  31  46 SE2        N/A
* WHITEHALL    N/A       66  53  63 N1G7       N/A
* WISE RIVER   N/A       56  51  83 SW2G7      N/A
$$

MTZ009>010-012-014-046-048-049-054-130800-
EAST SLOPES AND CENTRAL MONTANA
CITY           SKY/WX    TMP DP  RH WIND       PRES   REMARKS
* CONRAD       CLEAR     55  52  90 N/A        N/A
* DEARBORN     N/A       63  41  45 N/A        N/A
* MONARCH      N/A       55  32  42 SE3        N/A
* PENDROY      N/A       61  47  60 NE6        N/A
* ROGERS PASS  N/A       59  38  46 NW2        N/A
* SAINT MARY   N/A       56  50  80 SE2G7      N/A
* SWEET GRASS  N/A       69  49  49 NE2        N/A
$$

MTZ011-013-016-021-035-040-045-047-050-051-130800-
NORTH CENTRAL MONTANA
CITY           SKY/WX    TMP DP  RH WIND       PRES   REMARKS
* CHESTER      N/A       64  47  54 E2         N/A
* DENTON       N/A       57  44  62 SW6        N/A
* JUDITH GAP   N/A       59  46  62 N/A        N/A
* LOMA         N/A       67  46  47 NE4        N/A
$$

MTZ017>020-022>027-061-062-130800-
NORTHEAST MONTANA
CITY           SKY/WX    TMP DP  RH WIND       PRES   REMARKS
GLENDIVE       CLEAR     55  46  72 W7        30.17F
JORDAN         CLEAR     55  45  69 W5        30.18S
SIDNEY         CLEAR     63  48  58 W12       30.14S
* BEAVER HILL  N/A       62  47  58 S4         N/A
* CIRCLE       N/A       61  51  70 N/A        N/A
* LINDSAY DVD  N/A       55  48  77 W4         N/A
* NAVAJO       N/A       56  51  83 NW8        N/A
* SACO         N/A       58  54  87 S2         N/A
$$

MTZ028>042-056>058-130800-
SOUTHCENTRAL AND SOUTHEAST MONTANA
CITY           SKY/WX    TMP DP  RH WIND       PRES   REMARKS
BILLINGS       PTCLDY    68  43  40 N8        30.23S
* LAUREL APT   PTCLDY    68  43  40 N5         N/A
* ROUNDUP APT  PTCLDY    68  41  38 N/A        N/A
* ALZADA       N/A       61  48  62 NW1        N/A
* HYSHAM       N/A       67  40  37 E2G7       N/A
* LAME DEER    N/A       63  47  56 NE8        N/A
* REED POINT   N/A       61  54  78 N/A        N/A
* ROSCOE HILL  N/A       66  44  45 S6         N/A
$$

REGIONAL REPORTS...DAKOTAS
CITY           SKY/WX    TMP DP  RH WIND       PRES   REMARKS
WILLISTON      CLEAR     57  52  83 NE5       30.13R
DICKINSON      CLEAR     54  48  80 W7        30.12F
CROSBY         N/A       54  50  86 NW9       30.12S
WATFORD CITY   CLEAR     57  52  83 NE5       30.10R
BISMARCK       FAIR      61  55  81 W6        30.07S
GRAND FORKS    CLEAR     54  54 100 W6        29.95F
FARGO          CLEAR     57  54  90 W6        29.98S
BUFFALO SD     PTCLDY    63  50  63 N12       30.13S
RAPID CITY     CLEAR     64  61  90 NW10      30.19F
$$

REGIONAL REPORTS...WYOMING/IDAHO/WASHINGTON
CITY           SKY/WX    TMP DP  RH WIND       PRES   REMARKS
GILLETTE       PTCLDY    55  48  77 SW3       30.28S
CODY           MOCLDY    66  54  65 SW8       30.31S
YELLOWSTONE LA CLEAR     45  45 100 CALM      30.53S
MULLAN PASS    CLEAR     68  43  40 N3        30.36S
SAND POINT     CLEAR     59  50  72 CALM      30.12R
SPOKANE        CLEAR     72  45  38 W5        30.11R

$$




USA.gov is the U.S. government's official web portal to all federal, state and local government web resources and services.